Chehalis, WA
on Saturday, February 9, 2013

Saturday
Previous Day Next Day
Daily Summary
 ActualAverage (KOLM)Record (KOLM)
Temperature
Mean Temperature °F 41°F  
Max Temperature 50°F 49°F 63°F (1963)
Min Temperature 32°F 33°F 12°F (1989)
Degree Days
Heating Degree Days 24 24  
Month to date heating degree days 217  
Since 1 July heating degree days 3268  
Cooling Degree Days 0 0  
Month to date cooling degree days 0  
Year to date cooling degree days 0  
Moisture
Dew Point 36°F   
Average Humidity 89    
Maximum Humidity 100    
Minimum Humidity 62    
Precipitation
Precipitation 0.00 in 0.20 in 3.64 in (1951)
Month to date precipitation 1.83  
Year to date precipitation 9.67  
Wind
Wind Speed 1 mph   
Max Wind Speed 5 mph   
Max Gust Speed mph   
Visibility 7 miles   
Events Fog   

Key: T is trace of precipitation, MM is missing value
Source: NWS Daily Summary
Time(PST)TemperatureDew PointHumidity Pressure Visibility Wind DirectionWind SpeedGust SpeedPrecipitationEvents Conditions
12:15 AM 32.0°F 32.0°F 100% 30.30 in 7.0 miles Calm Calm - N/A   Partly Cloudy
12:35 AM 32.0°F 32.0°F 100% 30.30 in 10.0 miles Calm Calm - N/A   Mostly Cloudy
12:55 AM 32.0°F 32.0°F 100% 30.30 in 7.0 miles Calm Calm - N/A   Mostly Cloudy
1:15 AM 32.0°F 32.0°F 100% 30.29 in 10.0 miles Calm Calm - N/A   Overcast
1:35 AM 32.0°F 32.0°F 100% 30.30 in 8.0 miles Calm Calm - N/A   Overcast
1:55 AM 32.0°F 32.0°F 100% 30.30 in 9.0 miles Calm Calm - N/A   Overcast
2:15 AM 32.0°F 32.0°F 100% 30.30 in 5.0 miles Calm Calm - N/A   Overcast
2:35 AM 32.0°F 32.0°F 100% 30.31 in 5.0 miles Calm Calm - N/A   Overcast
2:55 AM 32.0°F 32.0°F 100% 30.31 in 5.0 miles Calm Calm - N/A   Overcast
3:15 AM 32.0°F 32.0°F 100% 30.30 in 5.0 miles Calm Calm - N/A   Overcast
3:35 AM 32.0°F 32.0°F 100% 30.30 in 6.0 miles Calm Calm - N/A   Overcast
3:55 AM 32.0°F 32.0°F 100% 30.29 in 5.0 miles Calm Calm - N/A   Overcast
4:15 AM 32.0°F 32.0°F 100% 30.29 in 1.0 miles Calm Calm - N/A   Overcast
4:35 AM 32.0°F 32.0°F 100% 30.28 in 0.8 miles Calm Calm - N/A   Overcast
4:55 AM 32.0°F 32.0°F 100% 30.29 in 0.5 miles Calm Calm - N/A Fog Fog
5:15 AM 32.0°F 32.0°F 100% 30.29 in 0.5 miles Calm Calm - N/A Fog Light Freezing Fog
5:35 AM 32.0°F 32.0°F 100% 30.29 in 0.5 miles Calm Calm - N/A Fog Light Freezing Fog
5:55 AM 32.0°F 32.0°F 100% 30.28 in 0.2 miles NE 3.5 mph - N/A Fog Light Freezing Fog
6:15 AM 32.0°F 32.0°F 100% 30.29 in 0.5 miles Calm Calm - N/A Fog Fog
6:35 AM 32.0°F 32.0°F 100% 30.29 in 0.2 miles Calm Calm - N/A Fog Fog
6:55 AM 32.0°F 32.0°F 100% 30.29 in 0.2 miles Calm Calm - N/A Fog Fog
7:15 AM 32.0°F 32.0°F 100% 30.29 in 0.2 miles Calm Calm - N/A Fog Fog
7:35 AM 32.0°F 32.0°F 100% 30.29 in 0.2 miles Calm Calm - N/A Fog Fog
7:55 AM 32.0°F 32.0°F 100% 30.30 in 0.2 miles Calm Calm - N/A Fog Fog
8:15 AM 32.0°F 32.0°F 100% 30.30 in 0.2 miles Calm Calm - N/A Fog Fog
8:35 AM 32.0°F 32.0°F 100% 30.30 in 0.2 miles Calm Calm - N/A Fog Fog
8:55 AM 32.0°F 32.0°F 100% 30.30 in 1.2 miles SSW 3.5 mph - N/A   Overcast
9:15 AM 32.0°F 32.0°F 100% 30.30 in 0.2 miles Calm Calm - N/A Fog Fog
9:35 AM 32.0°F 32.0°F 100% 30.30 in 4.0 miles SW 3.5 mph - N/A   Mostly Cloudy
9:55 AM 35.6°F 35.6°F 100% 30.30 in 10.0 miles South 3.5 mph - N/A   Scattered Clouds
10:15 AM 35.6°F 35.6°F 100% 30.29 in 10.0 miles South 3.5 mph - N/A   Partly Cloudy
10:35 AM 37.4°F 35.6°F 93% 30.31 in 10.0 miles SW 3.5 mph - N/A   Partly Cloudy
10:55 AM 39.2°F 37.4°F 93% 30.31 in 5.0 miles Calm Calm - N/A   Mostly Cloudy
11:15 AM 41.0°F 37.4°F 87% 30.31 in 5.0 miles Calm Calm - N/A   Overcast
11:35 AM 44.6°F 37.4°F 76% 30.31 in 5.0 miles Calm Calm - N/A   Haze
11:55 AM 46.4°F 39.2°F 76% 30.30 in 5.0 miles Calm Calm - N/A   Haze
12:15 PM 46.4°F 39.2°F 76% 30.29 in 5.0 miles SSE 3.5 mph - N/A   Haze
12:35 PM 48.2°F 39.2°F 71% 30.29 in 6.0 miles Calm Calm - N/A   Haze
12:55 PM 48.2°F 39.2°F 71% 30.28 in 7.0 miles Calm Calm - N/A   Overcast
1:35 PM 48.2°F 37.4°F 66% 30.28 in 10.0 miles Calm Calm - N/A   Overcast
1:55 PM 50.0°F 37.4°F 62% 30.27 in 10.0 miles SSE 3.5 mph - N/A   Overcast
2:15 PM 50.0°F 37.4°F 62% 30.26 in 9.0 miles South 4.6 mph - N/A   Mostly Cloudy
2:35 PM 50.0°F 37.4°F 62% 30.27 in 10.0 miles Calm Calm - N/A   Mostly Cloudy
2:55 PM 50.0°F 37.4°F 62% 30.27 in 10.0 miles Calm Calm - N/A   Overcast
3:15 PM 50.0°F 37.4°F 62% 30.27 in 10.0 miles SSE 3.5 mph - N/A   Overcast
3:35 PM 50.0°F 39.2°F 66% 30.27 in 10.0 miles Calm Calm - N/A   Overcast
3:55 PM 48.2°F 39.2°F 71% 30.28 in 10.0 miles Calm Calm - N/A   Overcast
4:15 PM 48.2°F 39.2°F 71% 30.28 in 10.0 miles Calm Calm - N/A   Overcast
4:35 PM 48.2°F 39.2°F 71% 30.28 in 10.0 miles Calm Calm - N/A   Overcast
4:55 PM 46.4°F 39.2°F 76% 30.29 in 10.0 miles Calm Calm - N/A   Overcast
5:15 PM 46.4°F 41.0°F 81% 30.28 in 10.0 miles Calm Calm - N/A   Overcast
5:35 PM 46.4°F 41.0°F 81% 30.28 in 10.0 miles Calm Calm - N/A   Overcast
5:55 PM 46.4°F 41.0°F 81% 30.29 in 10.0 miles Calm Calm - N/A   Overcast
6:15 PM 46.4°F 41.0°F 81% 30.29 in 10.0 miles Calm Calm - N/A   Overcast
6:35 PM 44.6°F 41.0°F 87% 30.29 in 10.0 miles Calm Calm - N/A   Overcast
6:55 PM 44.6°F 41.0°F 87% 30.29 in 8.0 miles Calm Calm - N/A   Overcast
7:15 PM 44.6°F 41.0°F 87% 30.29 in 10.0 miles Calm Calm - N/A   Overcast
7:35 PM 44.6°F 41.0°F 87% 30.29 in 10.0 miles Calm Calm - N/A   Overcast
7:55 PM 44.6°F 41.0°F 87% 30.30 in 10.0 miles NE 3.5 mph - N/A   Overcast
8:15 PM 44.6°F 41.0°F 87% 30.30 in 10.0 miles Calm Calm - N/A   Overcast
8:35 PM 44.6°F 41.0°F 87% 30.30 in 9.0 miles Calm Calm - N/A   Overcast
8:55 PM 42.8°F 41.0°F 93% 30.30 in 7.0 miles Calm Calm - N/A   Overcast
9:15 PM 42.8°F 41.0°F 93% 30.31 in 10.0 miles Calm Calm - N/A   Overcast
9:35 PM 42.8°F 41.0°F 93% 30.31 in 10.0 miles Calm Calm - N/A   Overcast
9:55 PM 42.8°F 41.0°F 93% 30.32 in 10.0 miles Calm Calm - N/A   Overcast
10:15 PM 42.8°F 39.2°F 87% 30.32 in 10.0 miles North 3.5 mph - N/A   Overcast
10:35 PM 42.8°F 39.2°F 87% 30.33 in 10.0 miles NNE 3.5 mph - N/A   Overcast
10:55 PM 42.8°F 39.2°F 87% 30.33 in 10.0 miles NNE 3.5 mph - N/A   Overcast
11:15 PM 41.0°F 39.2°F 93% 30.33 in 9.0 miles Calm Calm - N/A   Mostly Cloudy
11:35 PM 39.2°F 39.2°F 100% 30.33 in 10.0 miles NNE 3.5 mph - N/A   Mostly Cloudy
11:55 PM 39.2°F 39.2°F 100% 30.34 in 10.0 miles NNE 4.6 mph - N/A   Overcast
Moon Phase
Feb. 09 Feb. 10 Feb. 17 Feb. 25 Mar. 04
Sunrise:07:24 AM (PST) Moon Rise:06:38 AM (PST)2/9
Sunset:05:28 PM (PST) Moon Set:05:20 PM (PST)2/9

Copyright © 2014 The Weather Underground, Inc.